Regional Weather Roundup
Issued by NWS State College, PA

Home | Current Version | Previous Version | Text Only | Print | Product List | Glossary Off
Versions: 1 2 3 4 5 6 7 8 9 10 11 12 13 14 15 16 17 18 19 20 21 22 23 24 25 26 27 28 29 30 31 32 33 34 35 36 37 38 39 40 41 42 43 44 45 46 47 48 49 50

000
ASUS41 KCTP 010710
RWRCTP

REGIONAL WEATHER ROUNDUP
NATIONAL WEATHER SERVICE STATE COLLEGE PA
300 AM EDT SAT OCT 01 2016

Note: "fair" indicates few or no clouds below 12,000 feet with no
significant weather and/or obstructions to visibility.

* = STATION THAT DOES NOT REPORT PRECIPITATION /E.G. RAIN...SNOW...ETC/
    THUNDER OR FOG.

PAZ002>004-007>009-013>016-020>023-029>032-010800-
WESTERN PENNSYLVANIA

CITY           SKY/WX    TMP DP  RH WIND       PRES   REMARKS
ERIE           LGT RAIN  59  56  89 E5        30.12S
MEADVILLE      CLOUDY    56  53  90 VRB3      30.11F
FRANKLIN*        N/A     54  50  87 E10       30.13F
NEW CASTLE     CLOUDY    57  56  96 SE5       30.11S
BEAVER COUNTY  NOT AVBL
BUTLER*        CLOUDY    55  54  94 E8        30.12F
PITTSBURGH INT PTCLDY    56  56 100 E5        30.09S
PITTSBURGH     MOCLDY    56  53  90 E5        30.08F
INDIANA*       CLOUDY    57  55  94 E8        30.15S
LATROBE        PTCLDY    59  55  88 CALM      30.10F
WASHINGTON CO* CLOUDY    55  52  88 CALM      30.10S
$$

PAZ004>006-010>012-017>019-024>028-033>037-041-042-045-046-049>053-010800-
CENTRAL PENNSYLVANIA

CITY           SKY/WX    TMP DP  RH WIND       PRES   REMARKS
BRADFORD       CLOUDY    53  53 100 E10G21    30.16F
DUBOIS         CLOUDY    54  51  90 E9        30.14S
CLEARFIELD     CLOUDY    54  54 100 E8        30.17F FOG
JOHNSTOWN      CLOUDY    54  53  97 E8G17     30.14F
ALTOONA        LGT RAIN  54  54 100 NE3       30.17S FOG
STATE COLLEGE  CLOUDY    54  54  99 NE6       30.18F FOG
WILLIAMSPORT   CLOUDY    57  55  93 CALM      30.19F
SELINSGROVE    CLOUDY    57  57 100 N3        30.20F
FT INDIANTOWN  CLOUDY    55  54  94 E10G21    30.19F
CAPITAL CITY   CLOUDY    58  55  90 E9        30.17F
HARRISBURG     CLOUDY    58  57  97 E5        30.17F
YORK           CLOUDY    57  57 100 E10       30.15F
$$

PAZ038>040-043-044-047-048-054-055-060>062-067>071-010800-
EASTERN PENNSYLVANIA

CITY           SKY/WX    TMP DP  RH WIND       PRES   REMARKS
SCRANTON       CLOUDY    55  50  83 NE6       30.22F
MOUNT POCONO   NOT AVBL
ALLENTOWN      CLOUDY    55  52  89 NE10      30.22F
QUAKERTOWN*    CLOUDY    55  54  94 NE9       30.22F
READING        CLOUDY    56  54  93 N3        30.19S
LANCASTER      CLOUDY    58  57  97 E12       30.18F
COATESVILLE      N/A     55  55 100 NE7G21    30.19F FOG
POTTSTOWN      CLOUDY    55  54  96 NE9       30.21F
BLUE BELL      CLOUDY    54  54 100 NE9       30.19S
DOYLESTOWN     CLOUDY    56  55  97 NE8G17    30.20F
WILLOW GROVE   NOT AVBL
NORTH PHILA    CLOUDY    58  56  93 NE12      30.21F
PHILADELPHIA   CLOUDY    59  57  93 NE13      30.18F
$$




USA.gov is the U.S. government's official web portal to all federal, state and local government web resources and services.